TimePDT,TemperatureF,Dew PointF,Humidity,Sea Level PressureIn,VisibilityMPH,Wind Direction,Wind SpeedMPH,Gust SpeedMPH,PrecipitationIn,Events,Conditions,WindDirDegrees,DateUTC
12:53 AM,45.0,37.9,76,30.15,10.0,ESE,5.8,-,N/A,,Clear,110,2013-10-20 07:53:00
1:53 AM,44.1,37.0,76,30.16,10.0,ESE,4.6,-,N/A,,Clear,120,2013-10-20 08:53:00
2:53 AM,44.1,36.0,73,30.17,10.0,ESE,4.6,-,N/A,,Clear,120,2013-10-20 09:53:00
3:53 AM,44.1,36.0,73,30.15,10.0,ESE,4.6,-,N/A,,Clear,110,2013-10-20 10:53:00
4:53 AM,44.1,36.0,73,30.15,10.0,ESE,4.6,-,N/A,,Clear,120,2013-10-20 11:53:00
5:53 AM,42.1,36.0,79,30.16,10.0,ESE,4.6,-,N/A,,Clear,110,2013-10-20 12:53:00
6:53 AM,43.0,36.0,76,30.17,10.0,East,3.5,-,N/A,,Clear,100,2013-10-20 13:53:00
7:53 AM,43.0,36.0,76,30.18,10.0,ESE,3.5,-,N/A,,Clear,110,2013-10-20 14:53:00
8:53 AM,52.0,39.9,63,30.19,10.0,Calm,Calm,-,N/A,,Clear,0,2013-10-20 15:53:00
9:53 AM,55.9,37.9,51,30.19,10.0,SSW,3.5,-,N/A,,Clear,200,2013-10-20 16:53:00
10:53 AM,59.0,37.9,46,30.19,9.0,WSW,3.5,-,N/A,,Clear,250,2013-10-20 17:53:00
11:53 AM,63.0,37.9,40,30.18,9.0,WSW,5.8,-,N/A,,Clear,250,2013-10-20 18:53:00
12:53 PM,64.9,37.0,36,30.18,8.0,WSW,5.8,-,N/A,,Clear,240,2013-10-20 19:53:00
1:53 PM,66.0,37.0,34,30.16,10.0,Variable,3.5,-,N/A,,Clear,0,2013-10-20 20:53:00
2:53 PM,68.0,37.9,33,30.14,10.0,SW,4.6,-,N/A,,Clear,230,2013-10-20 21:53:00
3:53 PM,68.0,37.9,33,30.14,10.0,Variable,3.5,-,N/A,,Clear,0,2013-10-20 22:53:00
4:53 PM,68.0,37.9,33,30.13,10.0,Calm,Calm,-,N/A,,Clear,0,2013-10-20 23:53:00
5:53 PM,64.9,39.0,39,30.12,7.0,Calm,Calm,-,N/A,,Clear,0,2013-10-21 00:53:00
6:53 PM,57.0,39.9,53,30.13,10.0,East,6.9,-,N/A,,Clear,100,2013-10-21 01:53:00
7:53 PM,55.9,41.0,57,30.14,10.0,ESE,8.1,-,N/A,,Clear,110,2013-10-21 02:53:00
8:53 PM,55.9,39.9,55,30.14,10.0,ESE,8.1,-,N/A,,Clear,110,2013-10-21 03:53:00
9:53 PM,55.9,39.9,55,30.14,10.0,ESE,9.2,-,N/A,,Clear,110,2013-10-21 04:53:00
10:53 PM,55.0,39.9,57,30.14,10.0,East,9.2,-,N/A,,Clear,100,2013-10-21 05:53:00
11:53 PM,55.0,39.0,55,30.14,10.0,East,9.2,-,N/A,,Clear,100,2013-10-21 06:53:00